885  
ASUS42 KILM 040112  
RWRILM  
RWRILM  
REGIONAL HOURLY WEATHER ROUNDUP  
NATIONAL WEATHER SERVICE WILMINGTON NC  
800 PM EST FRI DEC 03 2021  
 
NOTE: "FAIR" INDICATES FEW OR NO CLOUDS BELOW 12,000 FEET WITH NO  
SIGNIFICANT WEATHER AND/OR S TO VISIBILITY
.  
   
..............WFO WILMINGTON COUNTY WARNING AREA............
 
 
   
.....COASTAL NC AND SC COUNTIES...
 
 
 
CITY SKY/WX TMP DP RH WIND PRES REMARKS
 
WILMINGTON CLEAR 60 49 66 W3 30.08R  
N MYRTLE BEACH CLEAR 56 52 86 SW7 30.07R  
MYRTLE BEACH CLEAR 59 52 77 S7 30.08R  
   
.....INLAND NC AND SC COUNTIES....
 
 
 
CITY SKY/WX TMP DP RH WIND PRES REMARKS
 
LUMBERTON NOT AVBL  
ELIZABETHTOWN CLEAR 60 41 50 S8 30.06R  
WHITEVILLE CLEAR 59 47 62 S5 30.08R  
FLORENCE CLEAR 55 40 56 S7 30.05R  
DARLINGTON CLEAR 59 42 53 S6 30.04S  
KINGSTREE FAIR 57 45 62 CALM 30.06S  
HARTSVILLE MOCLDY 64 41 42 CALM 30.04S  
BENNETTSVILLE FAIR 50 43 76 CALM 30.03S  
CONWAY FAIR 52 46 82 CALM 30.08R  
GEORGETOWN FAIR 50 45 81 CALM 30.09R  
MARION FAIR 61 46 59 S7 30.06R  
   
...................REST OF NORTH CAROLINA...................
 
 
   
........EASTERN NC......
 
 
 
CITY SKY/WX TMP DP RH WIND PRES REMARKS
 
CAPE HATTERAS CLEAR 54 48 80 E5 30.10S  
JACKSONVILLE CLEAR 57 48 72 SE6 30.07S  
MOREHEAD CITY CLEAR 51 47 86 CALM 30.08S  
KENANSVILLE CLEAR 45 41 87 MISG 30.06R  
NEW BERN CLEAR 53 48 83 E5 30.10R  
ELIZABETH CITY CLEAR 47 40 76 SE6 30.09F  
   
........CENTRAL NC......
 
 
 
CITY SKY/WX TMP DP RH WIND PRES REMARKS
 
RALEIGH DURHAM CLEAR 60 40 47 SE7 30.04R  
ROCKY MOUNT CLEAR 49 40 71 CALM 30.05S  
ROANOKE RAPIDS NOT AVBL  
FAYETTEVILLE CLEAR 54 42 64 S7 30.04R  
HOFFMAN CLEAR 48 42 80 CALM 30.00R  
   
........WESTERN NC......
 
 
 
CITY SKY/WX TMP DP RH WIND PRES REMARKS
 
CHARLOTTE PTCLDY 63 42 46 S6 30.02S  
GREENSBORO CLEAR 62 39 42 CALM 30.02R  
HICKORY NOT AVBL  
BOONE NOT AVBL  
ASHEVILLE NOT AVBL  
   
....................REST OF SOUTH CAROLINA..................
 
 
   
........EASTERN SC......
 
 
 
CITY SKY/WX TMP DP RH WIND PRES REMARKS
 
CHARLESTON CLEAR 57 44 62 S3 30.07R  
BEAUFORT MCAS PTCLDY 59 53 80 CALM 30.07R  
HILTON HEAD CLEAR 57 52 82 SW6 30.08R  
   
........CENTRAL SC......
 
 
 
CITY SKY/WX TMP DP RH WIND PRES REMARKS
 
COLUMBIA CLEAR 60 44 55 CALM 30.03R  
ORANGEBURG PTCLDY 57 47 69 CALM 30.06R  
SUMTER SHAW CLEAR 57 42 56 S3 30.04R  
   
........WESTERN SC......
 
 
 
CITY SKY/WX TMP DP RH WIND PRES REMARKS
 
GREENVILLE NOT AVBL  
ROCK HILL CLEAR 59 43 55 S6 30.03R  
ANDERSON PTCLDY 62 37 39 CALM 30.03R  
CLEMSON NOT AVBL  
GREENWOOD PTCLDY 61 44 53 SW7 30.05R  
 
   
..................COASTAL AND OFFSHORE REPORTS...............
 
 
   
...............LOCAL PIERS AND NC RESERVE.............
 
 
 
STATION/POSITION TIME SKY/WX TEMP WIND PRES VSBY
 
AIR SEA DIR/SP/G  
(UTC) (F) (DEG/KT/KT) (MB) (MI)  
JOHNY MRCER PIER 0030 60 59 210/ 6/ 7 1017.6R  
NC RESRV MASNBRO NOT AVBL  
OCEAN CREST PIER NOT AVBL  
SPRINGMAID PIER 0030 58 N/A  
 
   
...............COASTAL AND OFFSHORE BUOYS.............
 
 
 
STATION/POSITION TIME SKY/WX TEMP WIND PRES VSBY
 
AIR SEA DIR/SP/G  
(UTC) (F) (DEG/KT/KT) (MB) (MI)  
DIMNDSHOAL 41025 0050 65 74 90/ 8/ 10 1019.0R  
WVE H/P(F/S)= 3/ 6 SWL H/P/D(F/S/D)= 3/ 40/ 6  
 
CAPE LOOKOUT 0100 64 100/ 9/ 9 1019.2S  
ONSLOW BAY 41036 NOT AVBL  
ONSLOW BAY 41064 0008 68 70 80/ 12/ 16 1017.9R  
ONSLOW BAY 41159 0026 71 N/A  
WVE H/P(F/S)= 3/ 6  
 
MASNBO INL 41110 0026 60 N/A  
WVE H/P(F/S)= 2/ 6  
 
WILM HARBR 41108 0030 60 N/A  
WVE H/P(F/S)= 2/ 5  
 
27SE WRITB 41037 0008 69 68 110/ 12/ 17 1017.2R  
FRYING PAN 41013 0050 70 69 120/ 8/ 10 1018.4R  
WVE H/P(F/S)= 2/ 5 SWL H/P/D(F/S/D)= 2/210/ 5  
 
SUNST NRSH 41024 0008 58 57 140/ 2/ 4 1019.5R  
CAPRS NRSH 41029 0008 60 59 180/ 6/ 10 1018.2R  
EDISTO 41004 0050 69 71 190/ 8/ 10 1018.6R  
WVE H/P(F/S)= 2/11 SWL H/P/D(F/S/D)= 2/120/11  
 
   
.........OFFSHORE BUOYS BEYOND 100 NM OFFSHORE........
 
   
....IN A TRIANGLE---HAT TO BERMUDA TO BAHAMAS TO HAT..
 
 
 
 
STATION/POSITION TIME SKY/WX TEMP WIND PRES VSBY
 
AIR SEA DIR/SP/G  
(UTC) (F) (DEG/KT/KT) (MB) (MI)  
150E HAT 41001 NOT AVBL  
W BERMUDA 41048 0050 73 74 1018.7R  
WVE H/P(F/S)= 6/ 8 SWL H/P/D(F/S/D)= 5/320/ 8  
 
ATLANTIC S 41049 0050 76 78 320/ 10/ 14 1015.9R  
WVE H/P(F/S)= 5/ 9 SWL H/P/D(F/S/D)= 5/ 90/ 9  
 
E BAHAMAS 41046 0050 80 82 20/ 10/ 12 1017.7R  
WVE H/P(F/S)= 4/ 9 SWL H/P/D(F/S/D)= 3/ 80/ 9  
 
NE BAHAMAS 41047 0050 75 78 30/ 10/ 12 1017.8R  
WVE H/P(F/S)= 4/ 6 SWL H/P/D(F/S/D)= 3/ 60/ 6  
 
120E CANVRL41010 0050 73 77 180/ 4/ 6 1020.0R  
WVE H/P(F/S)= 3/ 6 SWL H/P/D(F/S/D)= 3/340/ 6  
 
END  
 
 
CLICK HERE TO GO TO PREVIOUS BULLETINS.

The Nexlab NC Page
The Nexlab SC Page Main Text Page